When you browse on this site, cookies collect data to enhance your experience and personalize the content and advertising you see.
Visit our Privacy Policy to learn more. By continuing to use the site, you agree to this use of cookies and data.
  • In United Kingdom
  • List of Countries
  • For 7 days
  • Water Temperature
  • Weather Map
  • Weather Widgets
  • user-avatar
    Login

    Hourly Weather Rio Branco

    Today, 26 February, Wednesday

    Time Temperature Precipitation Wind Pressure Humidity
    00:00 +25°C° 0 mm 1 mps 745 mmHg 96%
    01:00 +25°C° 0 mm 1 mps 745 mmHg 96%
    02:00 +25°C° 0 mm 1 mps 744 mmHg 97%
    03:00 +25°C° 0 mm 1 mps 744 mmHg 97%
    04:00 +25°C° 0 mm 1 mps 744 mmHg 98%
    05:00 +25°C° 0 mm 1 mps 744 mmHg 96%
    06:00 +26°C° 0 mm 1 mps 745 mmHg 94%
    07:00 +26°C° 0 mm 1 mps 745 mmHg 92%
    08:00 +28°C° 0 mm 1 mps 746 mmHg 84%
    09:00 +30°C° 0 mm 1 mps 746 mmHg 75%
    10:00 +32°C° 0 mm 1 mps 747 mmHg 67%
    11:00 +32°C° 0.5 mm 1 mps 746 mmHg 68%
    12:00 +33°C° 0.5 mm 1 mps 745 mmHg 69%
    13:00 +33°C° 0.5 mm 1 mps 744 mmHg 71%
    14:00 +32°C° 0.6 mm 1 mps 743 mmHg 73%
    15:00 +32°C° 0.6 mm 1 mps 742 mmHg 75%
    16:00 +32°C° 0.6 mm 1 mps 741 mmHg 78%
    17:00 +31°C° 0.1 mm 1 mps 742 mmHg 81%
    18:00 +29°C° 0.1 mm 1 mps 742 mmHg 84%
    19:00 +28°C° 0.1 mm 1 mps 743 mmHg 87%
    20:00 +27°C° 0.2 mm 1 mps 743 mmHg 89%
    21:00 +27°C° 0.2 mm 1 mps 744 mmHg 91%
    22:00 +26°C° 0.2 mm 1 mps 745 mmHg 93%
    23:00 +26°C° 0.6 mm 1 mps 745 mmHg 94%

    Tomorrow, 27 February, Thursday

    Time Temperature Precipitation Wind Pressure Humidity
    00:00 +26°C° 0.6 mm 1 mps 744 mmHg 95%
    01:00 +25°C° 0.6 mm 1 mps 744 mmHg 96%
    02:00 +25°C° 0 mm 1 mps 744 mmHg 97%
    03:00 +25°C° 0 mm 1 mps 744 mmHg 97%
    04:00 +23°C° 0 mm 0 mps 744 mmHg 97%
    05:00 +24°C° 0.1 mm 0 mps 744 mmHg 97%
    06:00 +24°C° 0.1 mm 0 mps 745 mmHg 96%
    07:00 +25°C° 0.1 mm 0 mps 746 mmHg 96%
    08:00 +26°C° 1.7 mm 0 mps 746 mmHg 94%
    09:00 +29°C° 1.7 mm 1 mps 746 mmHg 91%
    10:00 +30°C° 1.7 mm 1 mps 746 mmHg 89%
    11:00 +31°C° 2.5 mm 1 mps 745 mmHg 87%
    12:00 +31°C° 2.5 mm 1 mps 744 mmHg 86%
    13:00 +31°C° 2.5 mm 1 mps 744 mmHg 84%
    14:00 +30°C° 1.7 mm 1 mps 743 mmHg 88%
    15:00 +29°C° 1.7 mm 1 mps 743 mmHg 91%
    16:00 +28°C° 1.7 mm 2 mps 742 mmHg 94%
    17:00 +27°C° 0.2 mm 2 mps 743 mmHg 95%
    18:00 +27°C° 0.2 mm 2 mps 743 mmHg 96%
    19:00 +26°C° 0.2 mm 1 mps 744 mmHg 96%
    20:00 +26°C° 0.1 mm 1 mps 744 mmHg 97%
    21:00 +26°C° 0.1 mm 1 mps 745 mmHg 97%
    22:00 +24°C° 0.1 mm 0 mps 745 mmHg 97%
    23:00 +24°C° 0.6 mm 0 mps 745 mmHg 97%

    Day after tomorrow, 28 February, Friday

    Time Temperature Precipitation Wind Pressure Humidity
    00:00 +24°C° 0.6 mm 0 mps 745 mmHg 98%
    01:00 +23°C° 0.6 mm 0 mps 745 mmHg 98%
    02:00 +23°C° 1.4 mm 0 mps 744 mmHg 99%
    03:00 +25°C° 1.4 mm 1 mps 744 mmHg 99%
    04:00 +25°C° 1.4 mm 1 mps 744 mmHg 99%
    05:00 +25°C° 1.7 mm 1 mps 745 mmHg 99%
    06:00 +23°C° 1.7 mm 0 mps 745 mmHg 99%
    07:00 +24°C° 1.7 mm 0 mps 746 mmHg 98%
    08:00 +26°C° 1.8 mm 1 mps 746 mmHg 98%
    09:00 +26°C° 1.8 mm 1 mps 747 mmHg 98%
    10:00 +26°C° 1.8 mm 1 mps 747 mmHg 97%
    11:00 +26°C° 2 mm 1 mps 746 mmHg 98%
    12:00 +25°C° 2 mm 1 mps 746 mmHg 98%
    13:00 +25°C° 2 mm 1 mps 745 mmHg 98%
    14:00 +25°C° 0.2 mm 1 mps 745 mmHg 98%
    15:00 +26°C° 0.2 mm 1 mps 744 mmHg 97%
    16:00 +26°C° 0.2 mm 1 mps 743 mmHg 96%
    17:00 +23°C° 0 mm 0 mps 744 mmHg 97%
    18:00 +23°C° 0 mm 0 mps 744 mmHg 97%
    19:00 +23°C° 0 mm 0 mps 744 mmHg 97%
    20:00 +23°C° 0 mm 0 mps 745 mmHg 97%
    21:00 +23°C° 0 mm 0 mps 745 mmHg 97%
    22:00 +23°C° 0 mm 0 mps 746 mmHg 96%
    23:00 +23°C° 0 mm 0 mps 745 mmHg 96%

    29 February, Saturday

    Time Temperature Precipitation Wind Pressure Humidity
    00:00 +23°C° 0 mm 0 mps 745 mmHg 96%
    01:00 +22°C° 0 mm 0 mps 745 mmHg 96%
    02:00 +22°C° 0 mm 0 mps 745 mmHg 96%
    03:00 +22°C° 0 mm 0 mps 745 mmHg 96%
    04:00 +22°C° 0 mm 0 mps 745 mmHg 96%
    05:00 +23°C° 0 mm 0 mps 745 mmHg 96%
    06:00 +23°C° 0 mm 0 mps 746 mmHg 95%
    07:00 +23°C° 0 mm 0 mps 747 mmHg 94%
    08:00 +25°C° 0.1 mm 0 mps 747 mmHg 87%
    09:00 +27°C° 0.1 mm 0 mps 747 mmHg 80%
    10:00 +29°C° 0.1 mm 0 mps 747 mmHg 73%
    11:00 +29°C° 0.9 mm 0 mps 746 mmHg 73%
    12:00 +30°C° 0.9 mm 0 mps 745 mmHg 74%
    13:00 +30°C° 0.9 mm 0 mps 744 mmHg 75%
    14:00 +30°C° 1.5 mm 0 mps 744 mmHg 77%
    15:00 +29°C° 1.5 mm 0 mps 743 mmHg 80%
    16:00 +29°C° 1.5 mm 0 mps 743 mmHg 82%
    17:00 +27°C° 1 mm 0 mps 744 mmHg 86%
    18:00 +26°C° 1 mm 0 mps 744 mmHg 90%
    19:00 +24°C° 1 mm 0 mps 745 mmHg 93%
    20:00 +24°C° 0.9 mm 0 mps 745 mmHg 94%
    21:00 +24°C° 0.9 mm 0 mps 746 mmHg 95%
    22:00 +23°C° 0.9 mm 0 mps 746 mmHg 96%
    23:00 +23°C° 1.2 mm 0 mps 746 mmHg 97%

    1 March, Sunday

    Time Temperature Precipitation Wind Pressure Humidity
    00:00 +23°C° 1.2 mm 0 mps 746 mmHg 97%
    01:00 +23°C° 1.2 mm 0 mps 745 mmHg 98%
    02:00 +23°C° 1.3 mm 0 mps 745 mmHg 98%
    03:00 +23°C° 1.3 mm 0 mps 745 mmHg 98%
    04:00 +23°C° 1.3 mm 0 mps 745 mmHg 99%
    05:00 +23°C° 1.6 mm 0 mps 746 mmHg 99%
    06:00 +23°C° 1.6 mm 0 mps 746 mmHg 99%
    07:00 +23°C° 1.6 mm 0 mps 747 mmHg 99%
    08:00 +24°C° 0.4 mm 0 mps 747 mmHg 98%
    09:00 +26°C° 0.4 mm 1 mps 747 mmHg 97%
    10:00 +27°C° 0.4 mm 1 mps 748 mmHg 96%
    11:00 +28°C° 1.1 mm 1 mps 747 mmHg 93%
    12:00 +29°C° 1.1 mm 2 mps 746 mmHg 90%
    13:00 +30°C° 1.1 mm 2 mps 746 mmHg 87%
    14:00 +29°C° 0.9 mm 2 mps 745 mmHg 88%
    15:00 +29°C° 0.9 mm 2 mps 745 mmHg 88%
    16:00 +29°C° 0.9 mm 2 mps 744 mmHg 89%
    17:00 +28°C° 0.3 mm 1 mps 744 mmHg 92%
    18:00 +27°C° 0.3 mm 1 mps 744 mmHg 95%
    19:00 +26°C° 0.3 mm 1 mps 745 mmHg 97%
    20:00 +26°C° 0 mm 1 mps 745 mmHg 98%
    21:00 +25°C° 0 mm 1 mps 746 mmHg 98%
    22:00 +25°C° 0 mm 1 mps 746 mmHg 98%
    23:00 +25°C° 0 mm 1 mps 746 mmHg 98%

    2 March, Monday

    Time Temperature Precipitation Wind Pressure Humidity
    00:00 +25°C° 0 mm 1 mps 745 mmHg 98%
    01:00 +23°C° 0 mm 0 mps 745 mmHg 98%
    02:00 +25°C° 0 mm 1 mps 745 mmHg 98%
    03:00 +25°C° 0 mm 1 mps 745 mmHg 98%
    04:00 +24°C° 0 mm 1 mps 744 mmHg 98%
    05:00 +25°C° 0 mm 1 mps 745 mmHg 98%
    06:00 +25°C° 0 mm 1 mps 746 mmHg 97%
    07:00 +25°C° 0 mm 1 mps 746 mmHg 97%
    08:00 +27°C° 0 mm 1 mps 746 mmHg 89%
    09:00 +27°C° 0 mm 0 mps 747 mmHg 81%
    10:00 +30°C° 0 mm 0 mps 747 mmHg 73%
    11:00 +32°C° 0.3 mm 1 mps 746 mmHg 69%
    12:00 +33°C° 0.3 mm 1 mps 745 mmHg 66%
    13:00 +34°C° 0.3 mm 1 mps 744 mmHg 62%
    14:00 +33°C° 0.3 mm 1 mps 743 mmHg 66%
    15:00 +33°C° 0.3 mm 1 mps 742 mmHg 71%
    16:00 +32°C° 0.3 mm 1 mps 741 mmHg 75%
    17:00 +30°C° 0 mm 1 mps 742 mmHg 79%
    18:00 +29°C° 0 mm 1 mps 742 mmHg 83%
    19:00 +27°C° 0 mm 1 mps 742 mmHg 87%
    20:00 +27°C° 0 mm 1 mps 743 mmHg 88%
    21:00 +26°C° 0 mm 1 mps 743 mmHg 89%
    22:00 +24°C° 0 mm 0 mps 744 mmHg 90%
    23:00 +24°C° 0 mm 0 mps 744 mmHg 91%
    Show more